Bluefield, WV

4:49 PM EST on December 08, 2019 (GMT -0500)
Mercer County

Weather History for KBLF - November, 2019

Change the Weather History Date:

Saturday, November 16, 2019

  Actual Average Record
Temperature  
Mean Temperature 36 °F 47 °F  
Max Temperature 48 °F 56 °F 76 °F (1931)
Min Temperature 24 °F 39 °F 13 °F (1967)
Degree Days  
Heating Degree Days 29 18  
Month to date heating degree days 422 248  
Since 1 July heating degree days 735 612  
Cooling Degree Days 0 0  
Month to date cooling degree days 0 0  
Year to date cooling degree days 748 851  
Moisture  
Dew Point 24 °F    
Average Humidity 65    
Maximum Humidity 88    
Minimum Humidity 42    
Precipitation  
Precipitation 0.00 in 0.09 in 1.58 in (1920)
Month to date precipitation 0.35 1.37  
Year to date precipitation 35.15 35.40  
Snow  
Snow 0.00 in - - ()
Month to date snowfall 1.0  
Since 1 July snowfall 1.0  
Since 1 September snowfall 1.0  
Snow Depth 0.00 in    
Sea Level Pressure  
Sea Level Pressure 30.19 in    
Wind  
Wind Speed 4 mph (East)    
Max Wind Speed 10 mph    
Max Gust Speed 17 mph    
Visibility 10 miles    
Events      
T = Trace of Precipitation, MM = Missing Value Source: NWS Daily Summary

Daily Weather History Graph

Daily Weather History Graph

Search for Another Location

Airport or City:

Astronomy

Nov. 16, 2019 Rise Set
Actual Time 7:04 AM EST 5:13 PM EST
Civil Twilight 6:36 AM EST 5:41 PM EST
Nautical Twilight 6:05 AM EST 6:13 PM EST
Astronomical Twilight 5:34 AM EST 6:44 PM EST
Moon 8:47 PM EST (11/16) 10:55 AM EST (11/16)
Length of Visible Light 11h 04m
Length of Day
10h 09m
Waning Gibbous, 82% of the Moon is Illuminated
Nov 16
Waning Gibbous
Nov 19
Last Quarter
Nov 26
New
Dec 4
First Quarter
Dec 12
Full

Hourly Weather History & Observations

Time (EST) Temp. Windchill Dew Point Humidity Pressure Visibility Wind Dir Wind Speed Gust Speed Precip Events Conditions
12:52 AM 30.9 °F - 23.0 °F 72% 30.20 in 10.0 mi Calm Calm - N/A   Clear
1:52 AM 30.0 °F - 23.0 °F 75% 30.18 in 10.0 mi Calm Calm - N/A   Clear
2:52 AM 28.9 °F - 21.9 °F 75% 30.17 in 10.0 mi Calm Calm - N/A   Clear
3:52 AM 26.1 °F 20.5 °F 21.9 °F 84% 30.17 in 10.0 mi WSW 4.6 mph - N/A   Clear
4:52 AM 26.1 °F - 21.9 °F 84% 30.19 in 10.0 mi Calm Calm - N/A   Clear
5:52 AM 26.1 °F - 21.0 °F 81% 30.21 in 10.0 mi Calm Calm - N/A   Clear
6:52 AM 25.0 °F - 21.0 °F 85% 30.23 in 10.0 mi Calm Calm - N/A   Clear
7:52 AM 27.0 °F - 23.0 °F 85% 30.25 in 10.0 mi Calm Calm - N/A   Clear
8:52 AM 30.9 °F - 24.1 °F 76% 30.25 in 10.0 mi Calm Calm - N/A   Clear
9:52 AM 36.0 °F 32.1 °F 25.0 °F 64% 30.25 in 10.0 mi ENE 4.6 mph - N/A   Clear
11:52 AM 43.0 °F 40.3 °F 26.1 °F 51% 30.21 in 10.0 mi Variable 4.6 mph - N/A   Clear
12:52 PM 45.0 °F 40.6 °F 26.1 °F 48% 30.17 in 10.0 mi NE 8.1 mph - N/A   Clear
1:52 PM 48.0 °F - 26.1 °F 42% 30.15 in 10.0 mi North - - N/A   Clear
2:52 PM 46.9 °F - 26.1 °F 44% 30.15 in 10.0 mi NE 8.1 mph - N/A   Clear
3:52 PM 46.9 °F - 25.0 °F 42% 30.15 in 10.0 mi East 4.6 mph - N/A   Clear
4:52 PM 44.1 °F 41.5 °F 25.0 °F 47% 30.17 in 10.0 mi ENE 4.6 mph - N/A   Clear
5:52 PM 41.0 °F 37.1 °F 24.1 °F 51% 30.18 in 10.0 mi East 5.8 mph - N/A   Clear
6:52 PM 39.0 °F 36.8 °F 25.0 °F 57% 30.21 in 10.0 mi East 3.5 mph - N/A   Clear
7:52 PM 35.1 °F 30.1 °F 25.0 °F 67% 30.21 in 10.0 mi East 5.8 mph - N/A   Clear
8:52 PM 33.1 °F 28.7 °F 24.1 °F 70% 30.21 in 10.0 mi East 4.6 mph - N/A   Clear
9:52 PM 32.0 °F 25.6 °F 24.1 °F 73% 30.20 in 10.0 mi Variable 6.9 mph - N/A   Clear
10:52 PM 30.9 °F 24.3 °F 23.0 °F 72% 30.19 in 10.0 mi Variable 6.9 mph 16.1 mph N/A   Clear
11:52 PM 28.9 °F 21.9 °F 23.0 °F 78% 30.17 in 10.0 mi East 6.9 mph - N/A   Clear